Location: Krasnoyarskiy Pitomnik
(51.1333°N, 71.6167°E)
Time: 19:27:34
(UTC+00:00)

Vanguard 2 - Pass Details

Date: 28 April 2024
Orbit: 553 x 2914 km, 32.9° (Epoch: 22 May)

Event Time Altitude Azimuth Distance (km) Brightness Sun altitude
Exits shadow 23:10:27 - 264° (W) 5,877 11.5 -6.3°
Reaches altitude 10° 23:14:27 10° 255° (WSW) 5,198 11.1 -5.7°
Maximum altitude 23:27:10 30° 203° (SSW) 4,229 10.9 -4.0°
Drops below altitude 10° 23:40:58 10° 151° (SSE) 5,622 12.0 -2.1°
Sets 23:45:55 0° 142° (SE) 6,465 12.4 -1.4°
